GEESAT 5-05

基本信息
目录编号:
65554
目录名称:
GEESAT 5-05
国际标识:
2025-201E
轨道中心:
EARTH
卫星名称:
GEESAT 5-05
卫星全名:
GEESAT 5-05
卫星状态:
在轨 (已飞行42 天)
发射日期:
2025-09-08 UTC
国别 :
中国 (CN)
星等 :
--
轨道信息
数据来源 国际轨道数据
星历时间: 2025-10-19T22:28:38+0800
1天前
查看轨道信息
半长轴: 6987.542km
偏心率: 0.000932
轨道倾角: 49.984°
近地点辐角 82.661°
升交点赤经 75.300°
平近点角 277.539°
近地点: 602.894km
远地点: 615.92km
周期: 96.883分钟
每日圈数: 14.863331
详细信息
使用方式:
暂无
2D轨道图
3D轨道图
轨道高度分析图
轨道倾角分析图
轨道综合分析图
查看轨道综合分析图